Regional Weather Roundup
Issued by NWS San Angelo, TX

Home | Current Version | Previous Version | Text Only | Print | Product List | Glossary On
Versions: 1 2 3 4 5 6 7 8 9 10 11 12 13 14 15 16 17 18 19 20 21 22 23 24 25 26 27 28 29 30 31 32 33 34 35 36 37 38 39 40 41 42 43 44 45 46 47 48 49 50
000
ASUS44 KSJT 181710
RWRSJT
WEST CENTRAL TEXAS REGIONAL WEATHER ROUNDUP
NATIONAL WEATHER SERVICE SAN ANGELO TX
1200 PM CDT SAT APR 18 2015

NOTE: "FAIR" INDICATES FEW OR NO CLOUDS BELOW 12,000 FEET WITH NO
SIGNIFICANT WEATHER AND/OR OBSTRUCTIONS TO VISIBILITY.

TXZ049-054-064>066-071>073-076>078-098-099-113-114-127-128-139-140-
154-155-168>170-181800
...LOCATIONS ACROSS WEST CENTRAL TEXAS...

CITY           SKY/WX    TMP DP  RH WIND       PRES   REMARKS
SAN ANGELO     SUNNY     74  61  63 W5        29.92F
ABILENE        MOSUNNY   74  62  66 VRB6      29.91F
DYESS AFB      MOSUNNY   72  60  66 VRB7      29.89F
JUNCTION       MOSUNNY   72  64  76 E7        29.91S
SWEETWATER     SUNNY     72  58  60 SW9       29.95S
BROWNWOOD      PTSUNNY   72  63  73 SE3       29.92F
COLEMAN        MOSUNNY   73  62  68 S6        29.93F
SONORA         SUNNY     73  59  60 VRB3      29.96F
OZONA          FAIR      77  52  41 CALM      29.95F
BRADY          PTSUNNY   66  61  82 NE5       29.92F
$$

TEXAS PANHANDLE/OKLAHOMA PANHANDLE

CITY           SKY/WX    TMP DP  RH WIND       PRES   REMARKS
AMARILLO       SUNNY     68  26  20 SW16      29.90F
BORGER         SUNNY     66  30  26 VRB3      29.90F
CANADIAN       SUNNY     68  51  55 W5        29.88F
DALHART        MOSUNNY   59  29  31 W12G23    29.93S
DUMAS          SUNNY     64  25  22 SW17      29.91S
GUYMON         NOT AVBL
HEREFORD       SUNNY     69  27  20 SW21G26   29.92F
PAMPA          SUNNY     64  34  33 SW7       29.91F
PERRYTON       SUNNY     62  37  38 SW3       29.90S
$$

SOUTHERN PANHANDLE/SOUTH PLAINS/ROLLING PLAINS

CITY           SKY/WX    TMP DP  RH WIND       PRES   REMARKS
LUBBOCK        MOSUNNY   69  26  20 CALM      29.93F
SNYDER         SUNNY    N/A N/A N/A SW12      29.94F
CHILDRESS      SUNNY     67  57  70 W9        29.90F
SEMINOLE       SUNNY     69  26  19 SW12G17   29.98S
$$

PERMIAN BASIN

CITY           SKY/WX    TMP DP  RH WIND       PRES   REMARKS
MIDLAND        SUNNY     73  40  30 SW10      29.95F
ODESSA         SUNNY     73  33  23 W17       29.97S
WINK           SUNNY     73  18  12 W9        29.95F
$$

FAR WEST/SOUTHWEST MOUNTAINS/TRANS PECOS

CITY           SKY/WX    TMP DP  RH WIND       PRES   REMARKS
ALPINE         MOSUNNY   68  31  25 SW6       30.09S
DRYDEN           N/A     71  59  65 SW6       29.94F
EL PASO        MOSUNNY   66  16  14 W16       30.04R
FORT STOCKTON  SUNNY     74  30  19 NW9       29.98F
GUADALUPE PASS SUNNY     64  16  15 W23G29    30.04F
MARFA          SUNNY     68  19  15 W12G21    30.09R
PECOS          SUNNY     72  25  17 SW3       29.97F
$$

DALLAS/FORT WORTH METROPLEX

CITY           SKY/WX    TMP DP  RH WIND       PRES   REMARKS
DFW AIRPORT    PTSUNNY   74  63  68 S6        29.90S
FTW MEACHAM    MOSUNNY   72  64  76 S6        29.90F
DAL-EXECUTIVE  MOSUNNY   74  63  68 E5        29.90S
GRAND PRAIRIE  MOSUNNY   73  63  68 W3        29.92S
ADDISON        PTSUNNY   75  61  60 CALM      29.91F
MESQUITE       MOSUNNY   75  63  64 CALM      29.91F
LANCASTER      MOSUNNY   73  63  70 CALM      29.92R
$$

NORTH CENTRAL TEXAS

CITY           SKY/WX    TMP DP  RH WIND       PRES   REMARKS
SHRMAN/DENISON SUNNY     74  65  71 SE3       29.93F
GAINESVILLE    PTSUNNY   72  62  70 SE5       29.94S
BRIDGEPORT     PTSUNNY   68  65  92 S7        29.93F
DENTON         PTSUNNY   72  62  71 SW3       29.91S
WAXAHACHIE     PTSUNNY   73  66  78 S3        29.92S HAZE
GRANBURY         N/A     73  63  72 S3        29.93S
$$

WESTERN NORTH TEXAS

CITY           SKY/WX    TMP DP  RH WIND       PRES   REMARKS
WICHITA FALLS  MOSUNNY   67  61  81 MISG      29.90F
VERNON         CLOUDY    68  58  70 W7        29.91S
BRECKENRIDGE   MOSUNNY   77  60  55 SW9       29.90S
COMANCHE       PTSUNNY   74  66  76 SE8       29.93S
$$

CENTRAL AND SOUTH CENTRAL TEXAS

CITY           SKY/WX    TMP DP  RH WIND       PRES   REMARKS
AUSTIN/BERGSTM CLOUDY    70  66  87 N6        29.92F
WACO           PTSUNNY   73  65  75 CALM      29.92S
HILLSBORO      CLOUDY    70  63  77 SW6       29.93S
TEMPLE         CLOUDY    70  63  78 CALM      29.92F
KILLEEN-GRAY   CLOUDY    70  64  83 VRB2      29.92F
FORT HOOD      CLOUDY    68  65  90 N3        29.92F
GEORGETOWN     CLOUDY    70  64  83 N5        29.93F
LAGO VISTA     CLOUDY    67  66  95 CALM      29.94F FOG
SAN MARCOS     CLOUDY    70  64  83 N10       29.92F
NEW BRAUNFELS  CLOUDY    71  66  84 N10       29.89F
RANDOLPH AFB   CLOUDY    70  67  88 NE7       29.90F
SAN ANTONIO    CLOUDY    71  65  81 NE9       29.90F
STINSON        CLOUDY    72  66  81 NE9       29.87F
PLEASANTON     NOT AVBL
LA GRANGE      CLOUDY    73  69  89 CALM      29.88F
GIDDINGS       CLOUDY    70  65  84 CALM      29.93F
$$

EAST TEXAS

CITY           SKY/WX    TMP DP  RH WIND       PRES   REMARKS
PARIS          MOSUNNY   73  63  68 MISG      29.93F
CLARKSVILLE    NOT AVBL
TYLER          CLOUDY    76  65  68 N3        29.89S
LONGVIEW       CLOUDY    73  66  78 VRB5      29.89S
PALESTINE      CLOUDY    75  69  80 SE3       29.91S
NACOGDOCHES    PTSUNNY   73  64  73 SW9       29.90F
$$

TEXAS HILL COUNTRY AND EDWARDS PLATEAU

CITY           SKY/WX    TMP DP  RH WIND       PRES   REMARKS
LLANO          CLOUDY    70  63  78 CALM      29.96F
HORSESHOE BAY  CLOUDY    70  63  80 CALM      29.93F
KERRVILLE      PTSUNNY   73  65  75 CALM      29.92F
FREDERICKSBRG  CLOUDY    69  62  78 E9        29.92F
ROCKSPRINGS    MOSUNNY   70  63  78 W5        29.96S HAZE
HONDO          PTSUNNY   78  66  66 NE6       29.89F
UVALDE         MOSUNNY   75  65  71 CALM      29.89F
DEL RIO        MOSUNNY   75  63  66 CALM      29.90S
$$

SOUTHEAST TEXAS

CITY           SKY/WX    TMP DP  RH WIND       PRES   REMARKS
COLLEGE STN    CLOUDY    72  67  84 CALM      29.88F
CALDWELL       CLOUDY    72  70  94 CALM      29.92F
CROCKETT       CLOUDY    75  70  83 S6        29.93F
BRENHAM        CLOUDY    73  69  87 S5        29.90F
HUNTSVILLE     CLOUDY    73  67  81 CALM      29.89F
CONROE         CLOUDY    74  67  78 S9        29.89F
HOUSTON BUSH   CLOUDY    74  69  85 SE6       29.88F
HOUSTON HOBBY  CLOUDY    75  70  84 E5        29.87F
PERLAND        NOT AVBL
WHARTON        CLOUDY    73  69  87 CALM      29.90F
$$

THE UPPER TEXAS COAST

CITY           SKY/WX    TMP DP  RH WIND       PRES   REMARKS
ORANGE         CLOUDY    73  67  83 E8        29.88F
PORT ARTHUR    CLOUDY    74  70  87 E12G20    29.86F
GALVESTON      NOT AVBL
ANGLETON       CLOUDY    72  71  97 SE3       29.88S
BAY CITY       CLOUDY    73  72  96 E3        29.88F
$$

TEXAS COASTAL BEND, RIO GRANDE PLAINS DEEP SOUTH TEXAS

CITY           SKY/WX    TMP DP  RH WIND       PRES   REMARKS
VICTORIA       CLOUDY    73  69  87 NE10      29.89F
BEEVILLE       CLOUDY    70  70 100 NE9       29.88F
ROCKPORT       TSTM      72  68  87 E9        29.86F
PORT ARANSAS   CLOUDY    72  70  93 NE10G20   29.87S
PORT LAVACA    CLOUDY    71  69  93 NE8       29.88F
CORPUS CHRISTI LGT RAIN  72  69  90 NE7       29.85F
KINGSVILLE NAS CLOUDY    74  72  93 N8        29.86F
COTULLA        TSTM      70  67  90 E8        29.86F FOG
LAREDO         CLOUDY    70  69  96 N5        29.90S FOG
BROWNSVILLE    CLOUDY    75  72  90 S8        29.81F
PORT ISABEL    CLOUDY    77  74  90 S6        29.81F FOG
HEBBRONVILLE   FOG       69  68  96 N3        29.87F VSB 3/4
MCALLEN        CLOUDY    86  68  54 VRB3      29.82F
WESLACO        CLOUDY    80  75  84 E7        29.81F
FALFURRIAS     CLOUDY    74  69  87 NE7       29.83F
EDINBURG       CLOUDY    79  73  82 NE5       29.83F
$$



USA.gov is the U.S. government's official web portal to all federal, state and local government web resources and services.